Location: Newark
(9.4667°S, 159.8167°E)
Time: 03:23:49
(UTC+00:00)

Vanguard 1 - Pass Details

Date: 19 November 2019
Orbit: 652 x 3831 km, 34.2° (Epoch: 05 December)

Event Time Altitude Azimuth Distance (km) Brightness Sun altitude
Rises 15:36:07 0° 234° (SW) 6,943 14.3 -43.1°
Reaches altitude 10° 15:40:55 10° 227° (SW) 6,267 14.0 -42.1°
Maximum altitude 16:01:22 43° 159° (SSE) 4,746 13.6 -38.0°
Drops below altitude 10° 16:21:39 10° 93° (E) 6,287 14.8 -33.8°
Sets 16:26:22 0° 86° (E) 6,974 15.1 -32.8°
